[Date Prev][Date Next][Thread Prev][Thread Next] - [Date Index][Thread Index][Author Index]

2 Line ISS Keps 2-27



ISS
1 25544U 98067A   02058.18981481  .00053024  00000-0  61326-3 0  1228
2 25544  51.6358 245.6837 0010943 122.6495  37.7351 15.61262199186879


----
Via the sarex mailing list at AMSAT.ORG courtesy of AMSAT-NA.
To unsubscribe, send "unsubscribe sarex" to Majordomo@amsat.org



AMSAT Top AMSAT Home